Tillbaka till svenska Fidonet
English   Information   Debug  
FILM   0/18
FNEWS_PUBLISH   4758
FN_SYSOP   42037
FN_SYSOP_OLD1   71952
FTP_FIDO   0/2
FTSC_PUBLIC   0/13899
FUNNY   4303/4886
GENEALOGY.EUR   0/71
GET_INFO   105
GOLDED   0/408
HAM   12874/16397
HOLYSMOKE   4541/6791
HOT_SITES   0/1
HTMLEDIT   0/71
HUB203   466
HUB_100   264
HUB_400   39
HUMOR   0/29
IC   0/2851
INTERNET   0/424
INTERUSER   0/3
IP_CONNECT   719
JAMNNTPD   0/233
JAMTLAND   0/47
KATTY_KORNER   0/41
LAN   0/16
LINUX-USER   0/19
LINUXHELP   0/1155
LINUX   0/22268
LINUX_BBS   0/957
mail   18.68
mail_fore_ok   249
MENSA   0/341
MODERATOR   0/102
MONTE   0/992
MOSCOW_OKLAHOMA   0/1245
MUFFIN   0/783
MUSIC   0/321
N203_STAT   938
N203_SYSCHAT   313
NET203   321
NET204   69
NET_DEV   0/10
NORD.ADMIN   0/101
NORD.CHAT   0/2572
NORD.FIDONET   189
NORD.HARDWARE   0/28
NORD.KULTUR   0/114
NORD.PROG   0/32
NORD.SOFTWARE   0/88
NORD.TEKNIK   0/58
NORD   0/453
OCCULT_CHAT   0/93
OS2BBS   0/787
OS2DOSBBS   0/580
OS2HW   0/42
OS2INET   0/37
OS2LAN   0/134
OS2PROG   0/36
OS2REXX   0/113
OS2USER-L   207
OS2   0/4806
OSDEBATE   0/18996
PASCAL   0/490
PERL   0/457
PHP   0/45
POINTS   0/405
POLITICS   0/29554
POL_INC   10152/14731
PSION   103
R20_ADMIN   1132
R20_AMATORRADIO   0/2
R20_BEST_OF_FIDONET   14
R20_CHAT   0/893
R20_DEPP   0/3
R20_DEV   399
R20_ECHO2   1670
R20_ECHOPRES   0/35
R20_ESTAT   0/719
R20_FIDONETPROG...
...RAM.MYPOINT
  0/2
R20_FIDONETPROGRAM   0/22
R20_FIDONET   0/248
R20_FILEFIND   0/24
R20_FILEFOUND   0/22
R20_HIFI   0/3
R20_INFO2   3561
R20_INTERNET   0/12940
R20_INTRESSE   0/60
R20_INTR_KOM   0/99
R20_KANDIDAT.CHAT   42
R20_KANDIDAT   28
R20_KOM_DEV   112
R20_KONTROLL   0/13360
R20_KORSET   0/18
R20_LOKALTRAFIK   0/24
R20_MODERATOR   0/1852
R20_NC   76
R20_NET200   245
R20_NETWORK.OTH...
...ERNETS
  0/13
R20_OPERATIVSYS...
...TEM.LINUX
  0/44
R20_PROGRAMVAROR   0/1
R20_REC2NEC   534
R20_SFOSM   0/341
R20_SF   0/108
R20_SPRAK.ENGLISH   0/1
R20_SQUISH   107
R20_TEST   2
R20_WORST_OF_FIDONET   20
RAR   0/9
RA_MULTI   106
RA_UTIL   0/162
REGCON.EUR   0/2066
REGCON   0/13
SCIENCE   0/1206
SF   0/239
SHAREWARE_SUPPORT   0/5146
SHAREWRE   0/14
SIMPSONS   0/169
STATS_OLD1   0/2539.065
STATS_OLD2   0/2530
STATS_OLD3   0/2395.095
STATS_OLD4   0/1692.25
SURVIVOR   0/495
SYSOPS_CORNER   0/3
SYSOP   0/84
TAGLINES   0/112
TEAMOS2   0/4530
TECH   0/2617
TEST.444   0/105
TRAPDOOR   0/19
TREK   0/755
TUB   0/290
UFO   0/40
UNIX   0/1316
USA_EURLINK   0/102
USR_MODEMS   0/1
VATICAN   676/2740
VIETNAM_VETS   0/14
VIRUS   0/378
VIRUS_INFO   0/201
VISUAL_BASIC   0/473
WHITEHOUSE   4889/5187
WIN2000   0/101
WIN32   0/30
WIN95   0/4291
WIN95_OLD1   45798/70272
WINDOWS   0/1517
WWB_SYSOP   0/419
WWB_TECH   0/810
ZCC-PUBLIC   0/1
ZEC   4

 
4DOS   0/134
ABORTION   0/7
ALASKA_CHAT   0/506
ALLFIX_FILE   0/1313
ALLFIX_FILE_OLD1   0/7997
ALT_DOS   0/152
AMATEUR_RADIO   0/1039
AMIGASALE   0/14
AMIGA   0/331
AMIGA_INT   0/1
AMIGA_PROG   0/20
AMIGA_SYSOP   0/26
ANIME   0/15
ARGUS   0/924
ASCII_ART   0/340
ASIAN_LINK   0/651
ASTRONOMY   0/417
AUDIO   0/92
AUTOMOBILE_RACING   0/105
BABYLON5   5408/17862
BAG   135
BATPOWER   0/361
BBBS.ENGLISH   0/382
BBSLAW   0/109
BBS_ADS   0/5290
BBS_INTERNET   0/507
BIBLE   0/3563
BINKD   0/1119
BINKLEY   0/215
BLUEWAVE   0/2173
CABLE_MODEMS   0/25
CBM   0/46
CDRECORD   0/66
CDROM   0/20
CLASSIC_COMPUTER   0/378
COMICS   0/15
CONSPRCY   0/899
COOKING   39916
COOKING_OLD1   0/24719
COOKING_OLD2   0/40862
COOKING_OLD3   0/37489
COOKING_OLD4   0/35496
COOKING_OLD5   9370
C_ECHO   0/189
C_PLUSPLUS   0/31
DIRTY_DOZEN   0/201
DOORGAMES   0/2155
DOS_INTERNET   0/196
duplikat   6102
ECHOLIST   13702/18295
EC_SUPPORT   0/318
ELECTRONICS   0/359
ELEKTRONIK.GER   1534
ENET.LINGUISTIC   0/13
ENET.POLITICS   0/4
ENET.SOFT   0/11701
ENET.SYSOP   34210
ENET.TALKS   0/32
ENGLISH_TUTOR   0/2000
EVOLUTION   0/1335
FDECHO   0/217
FDN_ANNOUNCE   0/7068
FIDONEWS   24756
FIDONEWS_OLD1   0/49742
FIDONEWS_OLD2   0/35949
FIDONEWS_OLD3   0/30874
FIDONEWS_OLD4   0/37224
FIDO_SYSOP   12913
FIDO_UTIL   0/180
FILEFIND   0/209
FILEGATE   0/212
Möte HAM, 16397 texter
 lista första sista föregående nästa
Text 2494, 745 rader
Skriven 2008-09-11 23:00:24 av Amsat List (1:323/120.0)
Ärende: [keps]  orb08255.amsa
=============================
[keps]  orb08255.amsa

Return-Path: <keps-bounces@amsat.org>
X-Rcpt: craig.healy@chowda.com
X-UIDL: 1221187345.2599

SB KEPS @ AMSAT  $ORB08255.O
Orbital Elements  08255.OSCAR

HR AMSAT ORBITAL ELEMENTS FOR OSCAR SATELLITES
FROM WA5QGD FORT WORTH,TX September 11, 2008
Send Subscribe/unsubscribe to KEPS at 
http://www.amsat.org/mailman/listinfo/keps
BID: ORB08255.O
TO ALL RADIO AMATEURS BT

Satellite: AO-07
Catalog number: 07530
Epoch time:      08254.68654535
Element set:     274
Inclination:      101.4607 deg
RA of node:       283.3062 deg
Eccentricity:    0.0012197
Arg of perigee:   095.2306 deg
Mean anomaly:     265.0152 deg
Mean motion:   12.53574162 rev/day
Decay rate:       -2.7e-07 rev/day^2
Epoch rev:           54769
Checksum:              293

Satellite: AO-10
Catalog number: 14129
Epoch time:      08254.17561490
Element set:    0558
Inclination:      026.0290 deg
RA of node:       196.3494 deg
Eccentricity:    0.5965835
Arg of perigee:   155.8133 deg
Mean anomaly:     250.8737 deg
Mean motion:   02.05867831 rev/day
Decay rate:      -1.50e-06 rev/day^2
Epoch rev:           18985
Checksum:              330

Satellite: UO-11
Catalog number: 14781
Epoch time:      08255.87984014
Element set:     765
Inclination:      098.1486 deg
RA of node:       291.1799 deg
Eccentricity:    0.0009535
Arg of perigee:   148.2877 deg
Mean anomaly:     211.8930 deg
Mean motion:   14.79663944 rev/day
Decay rate:       3.29e-06 rev/day^2
Epoch rev:           31667
Checksum:              359

Satellite: RS-15
Catalog number: 23439
Epoch time:      08255.75424860
Element set:     144
Inclination:      064.8193 deg
RA of node:       355.0621 deg
Eccentricity:    0.0146497
Arg of perigee:   106.1293 deg
Mean anomaly:     255.5811 deg
Mean motion:   11.27552903 rev/day
Decay rate:       -3.9e-07 rev/day^2
Epoch rev:           56472
Checksum:              308

Satellite: FO-29
Catalog number: 24278
Epoch time:      08254.90667644
Element set:    0882
Inclination:      098.5779 deg
RA of node:       159.9515 deg
Eccentricity:    0.0350996
Arg of perigee:   353.8131 deg
Mean anomaly:     005.8732 deg
Mean motion:   13.52940146 rev/day
Decay rate:        1.1e-07 rev/day^2
Epoch rev:           59598
Checksum:              358

Satellite: SO-33
Catalog number: 25509
Epoch time:      08254.88625973
Element set:    0278
Inclination:      031.4299 deg
RA of node:       191.7777 deg
Eccentricity:    0.0354669
Arg of perigee:   056.4785 deg
Mean anomaly:     306.9195 deg
Mean motion:   14.28224989 rev/day
Decay rate:       1.92e-06 rev/day^2
Epoch rev:           51587
Checksum:              376

Satellite: AO-40
Catalog number: 26609
Epoch time:      08253.19399783
Element set:     116
Inclination:      007.7644 deg
RA of node:       061.8449 deg
Eccentricity:    0.7932190
Arg of perigee:   120.9689 deg
Mean anomaly:     338.5760 deg
Mean motion:   01.25588373 rev/day
Decay rate:      -4.09e-06 rev/day^2
Epoch rev:            3609
Checksum:              344

Satellite: VO-52
Catalog number: 28650
Epoch time:      08255.79131998
Element set:      28
Inclination:      097.7813 deg
RA of node:       319.9904 deg
Eccentricity:    0.0026365
Arg of perigee:   216.6640 deg
Mean anomaly:     143.2754 deg
Mean motion:   14.81495785 rev/day
Decay rate:      -2.26e-06 rev/day^2
Epoch rev:           18142
Checksum:              337

Satellite: PO-63
Catalog number: 29712
Epoch time:      08255.68268116
Element set:     787
Inclination:      097.8679 deg
RA of node:       312.2153 deg
Eccentricity:    0.0015381
Arg of perigee:   099.7182 deg
Mean anomaly:     260.5763 deg
Mean motion:   14.80261724 rev/day
Decay rate:       4.84e-06 rev/day^2
Epoch rev:            9026
Checksum:              334

/EX
SB KEPS @ AMSAT  $ORB08255.D
Orbital Elements  08255.MICROS

HR AMSAT ORBITAL ELEMENTS FOR THE MICROSATS
FROM WA5QGD FORT WORTH,TX September 11, 2008
Send Subscribe/unsubscribe to KEPS at 
http://www.amsat.org/mailman/listinfo/keps
BID: ORB08255.D
TO ALL RADIO AMATEURS BT

Satellite: AO-16
Catalog number: 20439
Epoch time:      08254.88657523
Element set:    0416
Inclination:      098.2402 deg
RA of node:       230.6076 deg
Eccentricity:    0.0010114
Arg of perigee:   284.9413 deg
Mean anomaly:     075.0657 deg
Mean motion:   14.31802163 rev/day
Decay rate:     -.00000000 rev/day^2
Epoch rev:           97318
Checksum:              277

Satellite: LO-19
Catalog number: 20442
Epoch time:      08255.89787235
Element set:     338
Inclination:      098.2094 deg
RA of node:       239.8373 deg
Eccentricity:    0.0010992
Arg of perigee:   278.3947 deg
Mean anomaly:     081.5972 deg
Mean motion:   14.32040264 rev/day
Decay rate:        2.5e-07 rev/day^2
Epoch rev:           97348
Checksum:              340

Satellite: AO-27
Catalog number: 22825
Epoch time:      08255.86966621
Element set:      60
Inclination:      098.3935 deg
RA of node:       212.6793 deg
Eccentricity:    0.0008743
Arg of perigee:   011.3443 deg
Mean anomaly:     348.7934 deg
Mean motion:   14.29246591 rev/day
Decay rate:       -4.0e-08 rev/day^2
Epoch rev:           78015
Checksum:              322

Satellite: IO-26
Catalog number: 22826
Epoch time:      08254.57871818
Element set:    0770
Inclination:      098.3860 deg
RA of node:       212.3056 deg
Eccentricity:    0.0009301
Arg of perigee:   010.9962 deg
Mean anomaly:     349.1429 deg
Mean motion:   14.29495986 rev/day
Decay rate:        1.5e-07 rev/day^2
Epoch rev:           78006
Checksum:              326

